| time (UTC) | temp C | wind direction | speed KPH | gust KPH | rain 1hr cm | rain 24hr cm | rain mn cm | humidity % | barometer mb |
| 20260505224534 | 28 | 164 | 14.5 | 27.4 | 0.00 | 0.00 | 0.00 | 70 | 1003.8 |
| 20260505223039 | 30 | 181 | 17.7 | 29.0 | 0.00 | 0.00 | 0.00 | 67 | 1003.6 |
| 20260505221530 | 30 | 156 | 11.3 | 22.5 | 0.00 | 0.00 | 0.00 | 66 | 1003.5 |
| 20260505220048 | 30 | 149 | 9.7 | 24.1 | 0.00 | 0.00 | 0.00 | 66 | 1003.7 |
| 20260505214536 | 31 | 209 | 9.7 | 20.9 | 0.00 | 0.00 | 0.00 | 63 | 1003.6 |
| 20260505213034 | 31 | 241 | 11.3 | 25.7 | 0.00 | 0.00 | 0.00 | 62 | 1003.8 |
| 20260505211532 | 31 | 170 | 11.3 | 22.5 | 0.00 | 0.00 | 0.00 | 63 | 1004.0 |
| 20260505210033 | 31 | 205 | 11.3 | 20.9 | 0.00 | 0.00 | 0.00 | 63 | 1004.1 |
| 20260505204530 | 31 | 243 | 11.3 | 27.4 | 0.00 | 0.00 | 0.00 | 63 | 1004.2 |
| 20260505203034 | 31 | 195 | 14.5 | 27.4 | 0.00 | 0.00 | 0.00 | 63 | 1004.5 |
| 20260505201533 | 30 | 179 | 12.9 | 27.4 | 0.00 | 0.00 | 0.00 | 65 | 1004.7 |
| 20260505200040 | 30 | 201 | 14.5 | 30.6 | 0.00 | 0.00 | 0.00 | 66 | 1004.8 |
| 20260505194532 | 29 | 211 | 14.5 | 30.6 | 0.00 | 0.00 | 0.00 | 67 | 1004.7 |
| 20260505193034 | 29 | 192 | 16.1 | 27.4 | 0.00 | 0.00 | 0.00 | 66 | 1004.8 |
| 20260505191535 | 28 | 197 | 14.5 | 27.4 | 0.00 | 0.00 | 0.00 | 68 | 1005.0 |
| 20260505190032 | 28 | 185 | 16.1 | 29.0 | 0.00 | 0.00 | 0.00 | 69 | 1005.2 |
| 20260505184532 | 27 | 175 | 14.5 | 33.8 | 0.00 | 0.00 | 0.00 | 70 | 1005.2 |
| 20260505183037 | 27 | 209 | 16.1 | 35.4 | 0.00 | 0.00 | 0.00 | 70 | 1005.3 |
| 20260505181530 | 27 | 178 | 16.1 | 32.2 | 0.00 | 0.00 | 0.00 | 71 | 1005.4 |
| 20260505180032 | 27 | 180 | 14.5 | 32.2 | 0.00 | 0.00 | 0.00 | 72 | 1005.6 |
| 20260505174531 | 26 | 200 | 16.1 | 29.0 | 0.00 | 0.00 | 0.00 | 73 | 1005.6 |
| 20260505173032 | 27 | 183 | 17.7 | 32.2 | 0.00 | 0.00 | 0.00 | 74 | 1005.4 |
| 20260505171532 | 26 | 207 | 17.7 | 41.8 | 0.00 | 0.00 | 0.00 | 75 | 1005.3 |
| 20260505170033 | 26 | 191 | 17.7 | 30.6 | 0.00 | 0.00 | 0.00 | 75 | 1005.4 |
| 20260505164531 | 25 | 214 | 16.1 | 38.6 | 0.00 | 0.00 | 0.00 | 76 | 1005.2 |
| 20260505163032 | 25 | 166 | 17.7 | 37.0 | 0.00 | 0.00 | 0.00 | 76 | 1005.3 |
| 20260505161540 | 25 | 187 | 16.1 | 32.2 | 0.00 | 0.00 | 0.00 | 78 | 1005.5 |
| 20260505153032 | 24 | 233 | 14.5 | 32.2 | 0.00 | 0.00 | 0.00 | 79 | 1005.5 |
| 20260505151531 | 23 | 193 | 19.3 | 37.0 | 0.00 | 0.00 | 0.00 | 80 | 1005.4 |
| 20260505124529 | 21 | 169 | 12.9 | 33.8 | 0.00 | 0.00 | 0.00 | 88 | 1004.4 |
| 20260505123033 | 21 | 228 | 17.7 | 32.2 | 0.00 | 0.00 | 0.00 | 88 | 1004.3 |
| 20260505121537 | 21 | 214 | 17.7 | 40.2 | 0.00 | 0.00 | 0.00 | 88 | 1004.0 |
| 20260505120031 | 21 | 175 | 14.5 | 35.4 | 0.00 | 0.00 | 0.00 | 88 | 1004.1 |
| 20260505114530 | 21 | 191 | 16.1 | 30.6 | 0.00 | 0.00 | 0.00 | 88 | 1004.0 |
| 20260505113030 | 21 | 188 | 17.7 | 45.1 | 0.00 | 0.00 | 0.00 | 88 | 1004.1 |
| 20260505111530 | 21 | 183 | 16.1 | 30.6 | 0.00 | 0.00 | 0.00 | 88 | 1003.9 |
| 20260505101537 | 21 | 171 | 14.5 | 29.0 | 0.00 | 0.00 | 0.00 | 87 | 1004.1 |
| 20260505100035 | 21 | 185 | 14.5 | 35.4 | 0.00 | 0.00 | 0.00 | 87 | 1003.9 |
| 20260505094528 | 21 | 189 | 16.1 | 33.8 | 0.00 | 0.00 | 0.00 | 87 | 1004.2 |
| 20260505093033 | 21 | 173 | 12.9 | 35.4 | 0.00 | 0.00 | 0.00 | 87 | 1004.4 |
| 20260505091534 | 21 | 180 | 17.7 | 33.8 | 0.00 | 0.00 | 0.00 | 87 | 1004.5 |
| 20260505090040 | 21 | 195 | 12.9 | 27.4 | 0.00 | 0.00 | 0.00 | 87 | 1004.5 |
| 20260505084539 | 21 | 174 | 16.1 | 35.4 | 0.00 | 0.00 | 0.00 | 87 | 1004.5 |
| 20260505083029 | 21 | 179 | 16.1 | 29.0 | 0.00 | 0.00 | 0.00 | 87 | 1004.4 |
| 20260505081531 | 20 | 200 | 19.3 | 37.0 | 0.00 | 0.00 | 0.00 | 88 | 1004.6 |
| 20260505080041 | 20 | 199 | 16.1 | 38.6 | 0.00 | 0.00 | 0.00 | 87 | 1004.7 |
| 20260505074529 | 20 | 167 | 16.1 | 38.6 | 0.00 | 0.00 | 0.00 | 87 | 1004.9 |
| 20260505073035 | 21 | 195 | 19.3 | 35.4 | 0.00 | 0.00 | 0.00 | 86 | 1005.1 |
| 20260505071542 | 21 | 179 | 16.1 | 38.6 | 0.00 | 0.00 | 0.00 | 86 | 1005.3 |
| 20260505070030 | 21 | 197 | 17.7 | 35.4 | 0.00 | 0.00 | 0.00 | 85 | 1005.5 |
| 20260505064534 | 21 | 170 | 16.1 | 33.8 | 0.00 | 0.00 | 0.00 | 84 | 1005.8 |
| 20260505063030 | 21 | 214 | 16.1 | 33.8 | 0.00 | 0.00 | 0.00 | 83 | 1005.9 |
| 20260505061537 | 21 | 204 | 14.5 | 32.2 | 0.00 | 0.00 | 0.00 | 83 | 1005.9 |
| 20260505060036 | 21 | 208 | 16.1 | 35.4 | 0.00 | 0.00 | 0.00 | 82 | 1005.8 |
| 20260505054536 | 21 | 168 | 17.7 | 41.8 | 0.00 | 0.00 | 0.00 | 81 | 1005.8 |
| 20260505053035 | 22 | 189 | 16.1 | 37.0 | 0.00 | 0.00 | 0.00 | 81 | 1006.1 |
| 20260505051532 | 22 | 200 | 17.7 | 32.2 | 0.00 | 0.00 | 0.00 | 80 | 1006.3 |
| 20260505041530 | 22 | 195 | 9.7 | 25.7 | 0.00 | 0.00 | 0.00 | 79 | 1006.5 |
| 20260505040032 | 22 | 199 | 12.9 | 25.7 | 0.00 | 0.00 | 0.00 | 78 | 1006.4 |
| 20260505034529 | 22 | 160 | 12.9 | 25.7 | 0.00 | 0.00 | 0.00 | 78 | 1006.2 |
| 20260505033038 | 22 | 175 | 14.5 | 30.6 | 0.00 | 0.00 | 0.00 | 78 | 1006.3 |
| 20260505031543 | 22 | 172 | 16.1 | 25.7 | 0.00 | 0.00 | 0.00 | 77 | 1006.3 |
| 20260505030032 | 22 | 173 | 11.3 | 24.1 | 0.00 | 0.00 | 0.00 | 77 | 1006.5 |
| 20260505024545 | 22 | 179 | 11.3 | 22.5 | 0.00 | 0.00 | 0.00 | 76 | 1006.3 |
| 20260505023040 | 22 | 168 | 9.7 | 20.9 | 0.00 | 0.00 | 0.00 | 75 | 1006.1 |
| 20260505021533 | 22 | 175 | 11.3 | 17.7 | 0.00 | 0.00 | 0.00 | 75 | 1006.2 |
| 20260505020032 | 22 | 200 | 12.9 | 20.9 | 0.00 | 0.00 | 0.00 | 74 | 1006.1 |
| 20260505014539 | 23 | 177 | 11.3 | 20.9 | 0.00 | 0.00 | 0.00 | 73 | 1006.2 |
| 20260505013029 | 23 | 201 | 12.9 | 22.5 | 0.00 | 0.00 | 0.00 | 71 | 1006.1 |
| 20260505011529 | 23 | 170 | 16.1 | 24.1 | 0.00 | 0.00 | 0.00 | 71 | 1006.1 |
| 20260505010031 | 23 | 173 | 12.9 | 27.4 | 0.00 | 0.00 | 0.00 | 70 | 1006.2 |
| 20260505004530 | 23 | 152 | 17.7 | 30.6 | 0.00 | 0.00 | 0.00 | 69 | 1006.1 |
| 20260505003032 | 24 | 191 | 19.3 | 32.2 | 0.00 | 0.00 | 0.00 | 67 | 1006.4 |
| 20260505001534 | 24 | 168 | 11.3 | 40.2 | 0.00 | 0.00 | 0.00 | 67 | 1006.6 |
| 20260505000029 | 25 | 195 | 19.3 | 43.5 | 0.00 | 0.00 | 0.00 | 66 | 1006.7 |
| 20260504234533 | 25 | 170 | 19.3 | 33.8 | 0.00 | 0.00 | 0.00 | 65 | 1006.5 |
| 20260504233032 | 25 | 168 | 19.3 | 38.6 | 0.00 | 0.00 | 0.00 | 65 | 1006.8 |
| 20260504231531 | 25 | 165 | 17.7 | 38.6 | 0.00 | 0.00 | 0.00 | 64 | 1006.8 |
| 20260504230030 | 25 | 199 | 19.3 | 35.4 | 0.00 | 0.00 | 0.00 | 62 | 1007.0 |